Meteo Giornale » Osservazioni meteo Italia » Perugia

ore: 04:35 - Osservazioni Meteo Perugia
Lat. 43° 5' N Lon. 12° 30' E Alt. 208 metri s.l.m.

foschia Europe/Rome

11 °C

Foschia

Temp. 24 Ore

11 °C

15 °C

Nord

5.5 Km/h

Dew point 10 °C

Umidità 93 %

Visibilità  4 Km

Il sole sorge alle ore 05:39

Il sole tramonta alle ore 20:33

Data e Ora Cielo e Fenomeni T °C DP °C Um. % Pres. hPa Vis. km Vento km/h
Oggi h: 04:35 foschia Foschia 11 10 93 1007 4 N 5.5
Oggi h: 04:23 foschia Foschia 11 11 100 1007 3 N 5.5
Oggi h: 04:19 foschia Foschia 11 11 100 1007 5 N 3.7
Oggi h: 03:50 molto_nuvoloso Molto Nuvoloso 12 11 93 1007 10 N 3.7
Oggi h: 02:50 molto_nuvoloso Molto Nuvoloso 12 11 93 1007 10 N 3.7
Oggi h: 02:18 coperto_pioggia Pioviggine Leggera 12 11 93 1007 10 N 1.8
Oggi h: 01:56 coperto_pioggia Pioviggine 12 11 93 1007 10 SE 9.3
Oggi h: 01:50 coperto_pioggia Pioggia Debole 12 11 93 1007 10 SE 7.4
Oggi h: 01:27 coperto_pioggia Pioggia 12 11 93 1007 7 SE 7.4
Oggi h: 01:11 coperto_pioggia Pioggia 12 11 93 1007 4 O 11.1
Oggi h: 01:10 coperto_pioggia Pioggia 12 11 93 1007 5 O 11.1
Oggi h: 01:06 coperto_pioggia Pioggia 12 11 93 1007 10 O/SO 9.3
Oggi h: 00:50 molto_nuvoloso Molto Nuvoloso 12 11 93 1007 10 N 5.5
Oggi h: 00:10 coperto_pioggia Pioviggine Leggera 12 11 93 1007 10 SE 11.1
Ieri h: 23:50 coperto_pioggia Pioviggine 12 11 93 1007 10 SE 14.8
Ieri h: 23:29 coperto_pioggia Pioviggine 12 11 93 1007 10 SE 13
Ieri h: 23:13 coperto_pioggia Pioggia Debole 12 11 93 1007 10 SE 13
Ieri h: 22:50 coperto_pioggia Pioggia 12 11 93 1008 10 SE 11.1
Ieri h: 21:50 molto_nuvoloso Molto Nuvoloso 12 11 93 1007 10 N 5.5
Ieri h: 19:50 coperto_pioggia Pioggia Debole 13 12 93 1006 8 N 5.5
Ieri h: 18:50 molto_nuvoloso Molto Nuvoloso 14 12 87 1005 10 N 5.5
Ieri h: 17:50 molto_nuvoloso Molto Nuvoloso 14 12 87 1006 10 N 5.5
Ieri h: 16:50 coperto_pioggia Pioggia Debole 14 12 87 1005 9 S 9.3
Ieri h: 15:50 molto_nuvoloso Molto Nuvoloso 14 12 87 1005 10 N 3.7
Ieri h: 14:50 coperto_pioggia Pioggia Debole 13 11 87 1005 10 N 3.7
Ieri h: 13:50 coperto_pioggia Pioggia Debole 14 12 87 1005 10 S/SE 9.3
Ieri h: 12:50 molto_nuvoloso Molto Nuvoloso 14 12 87 1004 10 E/SE 11.1
Ieri h: 11:50 coperto_pioggia Pioggia Debole 12 11 93 1004 3 N 5.5
Ieri h: 10:55 nuvoloso_piovaschi Rovescio di Pioggia 15 12 82 1004 3 N 3.7
Ieri h: 10:50 molto_nuvoloso Rovescio nelle Vicinanze 15 13 87 1004 10 E 7.4
Ieri h: 08:50 molto_nuvoloso Molto Nuvoloso 14 13 93 1004 10 N 3.7
Ieri h: 07:50 molto_nuvoloso Molto Nuvoloso 13 12 93 1004 10 N 1.8
Ieri h: 06:50 molto_nuvoloso Molto Nuvoloso 13 12 93 1004 10 N 3.7
Ieri h: 05:50 molto_nuvoloso Molto Nuvoloso 12 12 100 1004 10 N 5.5